CW9533 Torre Faro Messina IT current weather conditions

sailwx.info

Wind from 056

Air temperature 14.4° C
Dewpoint 9.2° C

Last reported at 2014-Oct-24 06:46 UTC.
Time now 2014-Oct-24 07:07 UTC

Location: N 38°16' E 015°39'.
View on Google Maps.

See reports from other nearby stations

  
Tides and Currents Weather Stations Pressure Air Temp Water Temp Dewpoint Dewpoint Depression Visibility Wind Speed Wind Dir Waves Ship Positions
date/time (UTC)wind fromknots sea level pressurealtimeterstation pressurevisibilityair tempwater tempwave heightnotes
2014-Oct-24 06:46 056 14.4
2014-Oct-24 06:30 057 13.3
2014-Oct-24 06:15 055 0 gusting 6 13.3
2014-Oct-24 06:00 041 1 gusting 4 13.3
2014-Oct-24 05:45 040 3 gusting 9 13.3
2014-Oct-24 05:30 298 3 gusting 7 13.3
2014-Oct-24 05:15 295 13.3
2014-Oct-24 04:59 321 13.3
2014-Oct-24 04:44 321 2 gusting 7 13.3
2014-Oct-24 04:29 321 2 gusting 4 13.3
2014-Oct-24 04:14 321 13.3
2014-Oct-24 03:59 321 13.3
2014-Oct-24 03:44 321 2 gusting 5 12.8
2014-Oct-24 03:29 321 3 gusting 6 12.8
2014-Oct-24 03:14 321 4 gusting 6 13.3
2014-Oct-24 02:59 321 4 gusting 6 13.3
2014-Oct-24 02:44 321 2 gusting 6 12.8
2014-Oct-24 02:29 321 4 gusting 6 13.3
2014-Oct-24 02:14 321 3 gusting 5 13.3
2014-Oct-24 01:59 321 0 gusting 2 13.3
2014-Oct-24 01:44 321 1 gusting 4 13.3
2014-Oct-24 01:29 320 4 gusting 6 13.3
2014-Oct-24 01:14 320 1 gusting 4 13.3
2014-Oct-24 00:59 320 2 gusting 5 13.3
2014-Oct-24 00:44 321 0 gusting 6 13.3
2014-Oct-24 00:29 340 0 gusting 3 12.8
2014-Oct-24 00:14 340 2 gusting 5 12.8
2014-Oct-23 23:59 346 0 gusting 4 12.8
2014-Oct-23 23:44 349 0 gusting 4 12.8
2014-Oct-23 23:29 303 5 gusting 11 12.2
2014-Oct-23 23:14 295 12.8
2014-Oct-23 22:59 295 6 gusting 13 12.8
2014-Oct-23 22:44 294 6 gusting 10 12.8
2014-Oct-23 22:29 351 5 gusting 9 12.8
2014-Oct-23 22:14 292 3 gusting 9 13.3
2014-Oct-23 21:59 293 2 gusting 8 13.3
2014-Oct-23 21:44 293 4 gusting 11 13.3
2014-Oct-23 21:29 296 5 gusting 12 12.8
2014-Oct-23 21:14 294 6 gusting 10 12.8
2014-Oct-23 20:59 293 6 gusting 13 13.3
2014-Oct-23 20:44 294 6 gusting 12 12.8
2014-Oct-23 20:29 294 6 gusting 10 12.8
2014-Oct-23 20:14 294 3 gusting 6 12.8
2014-Oct-23 19:59 294 5 gusting 12 12.8
2014-Oct-23 19:44 294 2 gusting 6 12.2
2014-Oct-23 19:29 295 3 gusting 6 12.2
2014-Oct-23 19:14 295 3 gusting 6 12.2
2014-Oct-23 18:59 295 3 gusting 7 12.8
2014-Oct-23 18:44 294 4 gusting 11 12.8
2014-Oct-23 18:29 294 3 gusting 6 12.8
2014-Oct-23 18:14 294 4 gusting 8 12.8
2014-Oct-23 17:59 294 2 gusting 8 12.8
2014-Oct-23 17:44 304 2 gusting 4 12.8
2014-Oct-23 17:29 304 12.8
2014-Oct-23 17:14 303 2 gusting 6 13.3
2014-Oct-23 16:59 302 1 gusting 9 13.3
2014-Oct-23 16:44 321 6 gusting 13 13.9
2014-Oct-23 16:29 337 5 gusting 10 13.9
2014-Oct-23 16:14 293 10 gusting 19 14.4
2014-Oct-23 15:59 331 9 gusting 19 15.0
2014-Oct-23 15:44 296 5 gusting 11 15.6
2014-Oct-23 15:29 313 6 gusting 13 15.6
2014-Oct-23 15:14 296 7 gusting 14 15.6
2014-Oct-23 14:59 298 5 gusting 14 15.6
2014-Oct-23 14:44 296 5 gusting 15 16.7
2014-Oct-23 14:29 296 4 gusting 8 16.7
2014-Oct-23 14:14 296 2 gusting 6 16.7
2014-Oct-23 13:59 302 6 gusting 16 16.7
2014-Oct-23 13:44 311 8 gusting 17 16.7
2014-Oct-23 13:29 296 5 gusting 11 16.1
2014-Oct-23 13:14 296 3 gusting 11 16.1
2014-Oct-23 12:59 296 4 gusting 14 15.6
2014-Oct-23 12:44 296 9 gusting 19 15.6
2014-Oct-23 12:29 296 5 gusting 13 15.6
2014-Oct-23 12:14 296 5 gusting 9 15.0
2014-Oct-23 11:59 296 2 gusting 14 14.4
2014-Oct-23 11:44 300 5 gusting 12 13.3
2014-Oct-23 11:29 339 7 gusting 18 13.3
2014-Oct-23 11:14 349 13 gusting 25 16.1
2014-Oct-23 10:59 319 9 gusting 13 18.9
2014-Oct-23 10:44 341 3 gusting 11 19.4
2014-Oct-23 10:29 026 8 gusting 16 18.9
2014-Oct-23 10:13 349 7 gusting 13 18.9
2014-Oct-23 09:58 013 8 gusting 15 18.3
2014-Oct-23 09:43 350 6 gusting 13 17.8
2014-Oct-23 09:28 327 5 gusting 8 16.1
2014-Oct-23 09:13 296 6 gusting 19 16.1
2014-Oct-23 08:58 318 6 gusting 16 18.3
2014-Oct-23 08:43 011 11 gusting 18 18.3
2014-Oct-23 08:28 009 10 gusting 18 18.3
2014-Oct-23 08:13 318 6 gusting 19 18.3
2014-Oct-23 07:58 355 7 gusting 14 17.8
2014-Oct-23 07:43 009 7 gusting 17 17.8
2014-Oct-23 07:28 348 5 gusting 17 17.2
2014-Oct-23 07:13 355 6 gusting 17 17.2
2014-Oct-23 06:58 023 7 gusting 15 16.7
2014-Oct-23 06:43 020 7 gusting 19 16.7
2014-Oct-23 06:28 022 9 gusting 19 16.7
2014-Oct-23 06:13 021 7 gusting 14 16.7
2014-Oct-23 05:58 009 10 gusting 20 16.7
2014-Oct-23 05:43 025 6 gusting 15 16.1
2014-Oct-23 05:28 355 11 gusting 20 16.1
2014-Oct-23 05:13 005 11 gusting 22 16.1
2014-Oct-23 04:58 017 12 gusting 19 16.1
2014-Oct-23 04:43 360 9 gusting 19 16.1
2014-Oct-23 04:28 355 6 gusting 16 15.0
2014-Oct-23 04:13 335 5 gusting 7 14.4
2014-Oct-23 03:58 319 6 gusting 13 13.9
2014-Oct-23 03:43 316 8 gusting 15 13.3
2014-Oct-23 03:28 333 6 gusting 12 12.8
2014-Oct-23 03:13 318 6 gusting 20 12.8
2014-Oct-23 02:58 009 17 gusting 32 13.9
2014-Oct-23 02:43 029 11 gusting 21 13.9
2014-Oct-23 02:28 011 13 gusting 23 15.0
2014-Oct-23 02:13 009 6 gusting 25 15.0
2014-Oct-23 01:58 348 4 gusting 8 16.1
2014-Oct-23 01:43 346 6 gusting 12 15.0
2014-Oct-23 01:28 015 5 gusting 12 14.4
2014-Oct-23 01:13 005 8 gusting 18 14.4
2014-Oct-23 00:58 335 13 gusting 31 14.4
2014-Oct-23 00:43 297 6 gusting 16 17.8
2014-Oct-23 00:28 339 8 gusting 19 17.8
2014-Oct-23 00:13 355 6 gusting 11 17.2
2014-Oct-22 23:58 337 5 gusting 19 16.7
2014-Oct-22 23:43 005 14 gusting 26 17.2
2014-Oct-22 23:28 344 9 gusting 23 18.3
2014-Oct-22 23:13 025 13 gusting 22 18.3
2014-Oct-22 22:57 005 12 gusting 30 19.4
2014-Oct-22 22:42 332 9 gusting 17 20.0
2014-Oct-22 22:27 049 5 gusting 16 20.0
2014-Oct-22 22:12 032 3 gusting 14 20.6
2014-Oct-22 21:57 342 4 gusting 19 20.6
2014-Oct-22 21:42 346 10 gusting 18 20.6
2014-Oct-22 21:27 042 10 gusting 19 20.0
2014-Oct-22 21:12 009 10 gusting 20 20.6
2014-Oct-22 20:57 336 10 gusting 20 21.1
2014-Oct-22 20:42 005 6 gusting 17 21.1
2014-Oct-22 20:27 005 5 gusting 12 21.1
2014-Oct-22 20:12 023 2 gusting 9 21.1
2014-Oct-22 19:57 042 6 gusting 16 21.1
2014-Oct-22 19:42 311 6 gusting 12 21.1
2014-Oct-22 19:27 011 21.1
2014-Oct-22 19:12 013 4 gusting 11 21.1
2014-Oct-22 18:57 355 5 gusting 10 21.1
2014-Oct-22 18:42 360 6 gusting 15 20.6
2014-Oct-22 18:27 331 4 gusting 13 20.6
2014-Oct-22 18:12 009 6 gusting 13 20.6
2014-Oct-22 17:57 296 20.6
2014-Oct-22 17:42 295 0 gusting 14 20.6
2014-Oct-22 17:27 341 5 gusting 10 19.4
2014-Oct-22 17:12 307 5 gusting 10 18.9
2014-Oct-22 16:57 315 5 gusting 23 18.9
2014-Oct-22 16:42 299 9 gusting 15 20.0
2014-Oct-22 16:27 333 8 gusting 21 21.1
2014-Oct-22 16:12 296 11 gusting 19 21.1
2014-Oct-22 15:57 295 6 gusting 15 21.1
2014-Oct-22 15:42 309 1 gusting 10 21.1
2014-Oct-22 15:27 336 6 gusting 11 20.6
2014-Oct-22 15:12 294 2 gusting 7 20.0
2014-Oct-22 14:57 295 8 gusting 17 20.6
2014-Oct-22 14:42 296 5 gusting 13 20.6
2014-Oct-22 14:27 302 8 gusting 13 20.6
2014-Oct-22 14:12 324 4 gusting 7 21.1
2014-Oct-22 13:57 355 6 gusting 13 21.1
2014-Oct-22 13:42 332 8 gusting 18 23.3
2014-Oct-22 13:27 336 4 gusting 15 24.4
2014-Oct-22 13:12 306 11 gusting 20 24.4
2014-Oct-22 12:57 298 6 gusting 14 24.4
2014-Oct-22 12:42 304 13 gusting 23 24.4
2014-Oct-22 12:27 322 6 gusting 16 24.4
2014-Oct-22 12:12 299 12 gusting 20 24.4
2014-Oct-22 11:57 296 6 gusting 21 25.0
2014-Oct-22 11:42 355 9 gusting 21 25.0
2014-Oct-22 11:27 297 3 gusting 17 24.4
2014-Oct-22 11:12 333 7 gusting 16 24.4
2014-Oct-22 10:57 360 9 gusting 17 25.0
2014-Oct-22 10:42 342 6 gusting 18 25.0
2014-Oct-22 10:27 313 5 gusting 13 25.0
2014-Oct-22 10:12 319 1 gusting 7 24.4
2014-Oct-22 09:57 005 6 gusting 10 25.0
2014-Oct-22 09:42 296 25.0
2014-Oct-22 09:27 301 7 gusting 13 25.0
2014-Oct-22 09:12 298 3 gusting 13 25.0
2014-Oct-22 08:57 027 2 gusting 7 25.0
2014-Oct-22 08:41 037 24.4
2014-Oct-22 08:26 037 0 gusting 5 23.9
2014-Oct-22 08:11 033 2 gusting 6 23.9
2014-Oct-22 07:56 033 3 gusting 6 23.3
2014-Oct-22 07:41 033 22.8
2014-Oct-22 07:26 033 22.2
2014-Oct-22 07:11 033 21.7